Flag for Germany Weather past 2 weeks in Dillenburg, Hesse, Germany

Now
34 °F

Overcast.


Feels Like: 34 °F
Forecast: 29 / 46 °F
Wind: 1 mph from Southwest

Location: Giessen

Current Time: Mar 6, 2015 at 1:10:32 AM

Latest Report: Mar 6, 2015 at 12:00 AM


Visibility: 12 mi

Pressure: 30.66 "Hg

Humidity: 88%

Dew point: 31 °F

Location of DillenburgLocation

Historic Weather in Dillenburg — Graph

°F

Dillenburg temperature yesterday

Maximum temperature yesterday: 45 °F (at 4:00 PM)
Minimum temperature yesterday: 33 °F (at 5:00 AM)
Average temperature yesterday: 39 °F

Past Weeks' High & Low Weather Summary

 TemperatureHumidityPressure
High51 °F (Mar 1, 3:00 PM)100% (Feb 22, 4:00 AM)30.66 "Hg (Feb 22, 4:00 AM)
Low28 °F (Feb 25, 3:00 AM)51% (Mar 2, 4:00 PM)29.41 "Hg (Feb 21, 7:00 AM)
Average38 °F84%29.97 "Hg
* Reported Midnight between Feb 18 and Feb 19 — Midnight between Mar 5 and Mar 6, Dillenburg, Weather by CustomWeather, © 2015

Note: Actual official high and low records may vary slightly from our data, if they occured in-between our weather recording intervals... More about our weather records

Advertising

Dillenburg weather history for previous 24 hours

 ConditionsComfort  
Time TempWeatherWind HumidityBarometerVisibility
12:00 AM
Fri, Mar 6
34 °FOvercast.1 mph88%30.66 "Hg12 mi
10:00 PM
Thu, Mar 5
36 °FOvercast.1 mph80%30.66 "Hg19 mi
9:00 PM35 °FOvercast.2 mph84%30.65 "Hg22 mi
8:00 PM38 °FOvercast.2 mph82%30.64 "Hg22 mi
7:00 PM41 °FOvercast.2 mph66%30.63 "Hg34 mi
6:00 PM42 °FOvercast.2 mph66%30.62 "Hg34 mi
5:00 PM44 °FOvercast.5 mph57%30.61 "Hg43 mi
4:00 PM45 °FOvercast.6 mph59%30.60 "Hg40 mi
3:00 PM44 °FOvercast.6 mph60%30.61 "Hg40 mi
2:00 PM44 °FOvercast.5 mph60%30.61 "Hg31 mi
1:00 PM44 °FOvercast.5 mph61%30.62 "Hg28 mi
12:00 PM41 °FOvercast.6 mph66%30.63 "Hg31 mi
11:00 AM40 °FOvercast.3 mph69%30.63 "Hg37 mi
10:00 AM40 °FOvercast.3 mph71%30.62 "Hg28 mi
9:00 AM38 °FScattered clouds.3 mph79%30.61 "Hg28 mi
8:00 AM34 °FPassing clouds.3 mph86%30.60 "Hg22 mi
7:00 AM35 °FOvercast.2 mph89%30.59 "Hg25 mi
6:00 AM35 °FPassing clouds.3 mph84%30.57 "Hg28 mi
5:00 AM33 °FOvercast.3 mph92%30.55 "Hg31 mi
3:00 AM36 °FLow clouds.1 mph85%30.51 "Hg31 mi
2:00 AM37 °FPassing clouds.2 mph84%30.47 "Hg31 mi
1:00 AM36 °FPassing clouds.3 mph88%30.45 "Hg22 mi
Weather by CustomWeather, © 2015

See weather overviewHow to use our weather pages